Starlink 4489

operational
NORAD ID: 53542 Int'l Des: 2022-101 Owner: SPXS Country: US Constellation: starlink
LEOCIRCULAR

Starlink 4489について

説明を読み込み中...

リアルタイム位置

3D地球を読み込み中...

次回通過

高度履歴

Altitude vs Time

uPlot chart will show altitude changes over time

軌道要素

1 53542U 22101R 25257.36475672 .00000894 00000-0 74250-4 0 9999
2 53542 53.2166 135.6732 0001590 82.9627 277.1546 15.08839809170371
Epoch: Sep 14, 2025 • Age: 23 hours

現在のステータス

高度 539.8 km
速度 7.59 km/s
衛星直下点 8.06°N, 165.61°W
打ち上げ日 Aug 19, 2022
運用期間 3 years
タイプ internet

技術仕様

分類 Payload
質量 300.00 kg
乾燥質量 290.00 kg
総質量 300.00 kg
長さ 0.20 m
直径 2.80 m
スパン 9.00 m
形状 Box + pan
製造者 SPXS
バスタイプ Starlink
フェーズステータス In Orbit
所有者/国 SPXS/US

大規模コンステレーション

Loading constellations...